When you browse on this site, cookies collect data to enhance your experience and personalize the content and advertising you see.
Visit our Privacy Policy to learn more. By continuing to use the site, you agree to this use of cookies and data.
  • In Netherlands
  • List of Countries
  • For 7 days
  • Water Temperature
  • Satellite Maps
  • Weather Map
  • Weather Widgets
  • user-avatar
    Login

    Hourly Weather Mayskoe

    Today, 24 April, Wednesday

    Time Temperature Precipitation Wind Pressure Humidity
    00:00 +12°C° 0 mm 2 mps 748 mmHg 61%
    01:00 +10°C° 0 mm 2 mps 748 mmHg 63%
    02:00 +10°C° 0 mm 2 mps 748 mmHg 65%
    03:00 +9°C° 0 mm 2 mps 748 mmHg 64%
    04:00 +9°C° 0 mm 2 mps 748 mmHg 66%
    05:00 +9°C° 0 mm 2 mps 749 mmHg 67%
    06:00 +8°C° 0 mm 2 mps 749 mmHg 69%
    07:00 +10°C° 0 mm 2 mps 749 mmHg 64%
    08:00 +12°C° 0 mm 3 mps 749 mmHg 58%
    09:00 +14°C° 0 mm 3 mps 749 mmHg 53%
    10:00 +16°C° 0 mm 3 mps 749 mmHg 48%
    11:00 +18°C° 0 mm 3 mps 749 mmHg 43%
    12:00 +19°C° 0 mm 3 mps 749 mmHg 39%
    13:00 +20°C° 0 mm 4 mps 749 mmHg 37%
    14:00 +21°C° 0 mm 4 mps 748 mmHg 36%
    15:00 +21°C° 0 mm 4 mps 748 mmHg 35%
    16:00 +21°C° 0 mm 3 mps 748 mmHg 36%
    17:00 +21°C° 0 mm 3 mps 748 mmHg 38%
    18:00 +20°C° 0 mm 2 mps 748 mmHg 40%
    19:00 +19°C° 0 mm 2 mps 748 mmHg 44%
    20:00 +17°C° 0 mm 2 mps 748 mmHg 47%
    21:00 +16°C° 0 mm 2 mps 748 mmHg 51%
    22:00 +15°C° 0 mm 2 mps 748 mmHg 53%
    23:00 +14°C° 0 mm 2 mps 748 mmHg 55%

    Tomorrow, 25 April, Thursday

    Time Temperature Precipitation Wind Pressure Humidity
    00:00 +14°C° 0 mm 2 mps 748 mmHg 57%
    01:00 +13°C° 0 mm 2 mps 748 mmHg 59%
    02:00 +13°C° 0 mm 2 mps 748 mmHg 61%
    03:00 +12°C° 0 mm 2 mps 748 mmHg 63%
    04:00 +12°C° 0 mm 2 mps 748 mmHg 65%
    05:00 +12°C° 0 mm 2 mps 748 mmHg 66%
    06:00 +12°C° 0 mm 2 mps 748 mmHg 68%
    07:00 +13°C° 0 mm 2 mps 748 mmHg 63%
    08:00 +15°C° 0 mm 2 mps 748 mmHg 57%
    09:00 +17°C° 0 mm 2 mps 749 mmHg 51%
    10:00 +19°C° 0 mm 2 mps 748 mmHg 47%
    11:00 +20°C° 0 mm 3 mps 748 mmHg 42%
    12:00 +21°C° 0 mm 3 mps 748 mmHg 38%
    13:00 +22°C° 0 mm 3 mps 748 mmHg 36%
    14:00 +23°C° 0 mm 2 mps 748 mmHg 35%
    15:00 +24°C° 0 mm 2 mps 747 mmHg 34%
    16:00 +23°C° 0 mm 2 mps 747 mmHg 36%
    17:00 +23°C° 0 mm 2 mps 747 mmHg 38%
    18:00 +23°C° 0 mm 2 mps 746 mmHg 40%
    19:00 +22°C° 0 mm 1 mps 746 mmHg 42%
    20:00 +21°C° 0 mm 1 mps 746 mmHg 45%
    21:00 +20°C° 0 mm 1 mps 746 mmHg 47%
    22:00 +19°C° 0 mm 1 mps 746 mmHg 48%
    23:00 +17°C° 0 mm 0 mps 746 mmHg 49%

    Day after tomorrow, 26 April, Friday

    Time Temperature Precipitation Wind Pressure Humidity
    00:00 +16°C° 0 mm 0 mps 746 mmHg 50%
    01:00 +16°C° 0 mm 0 mps 746 mmHg 52%
    02:00 +16°C° 0 mm 1 mps 746 mmHg 54%
    03:00 +15°C° 0 mm 1 mps 746 mmHg 55%
    04:00 +15°C° 0.3 mm 1 mps 746 mmHg 59%
    05:00 +14°C° 0.3 mm 1 mps 746 mmHg 63%
    06:00 +14°C° 0.3 mm 2 mps 746 mmHg 68%
    07:00 +15°C° 0.3 mm 2 mps 746 mmHg 64%
    08:00 +16°C° 0.3 mm 2 mps 746 mmHg 60%
    09:00 +17°C° 0.3 mm 3 mps 746 mmHg 56%
    10:00 +18°C° 0.1 mm 3 mps 746 mmHg 52%
    11:00 +20°C° 0.1 mm 3 mps 746 mmHg 48%
    12:00 +21°C° 0.1 mm 3 mps 746 mmHg 44%
    13:00 +21°C° 0 mm 2 mps 745 mmHg 45%
    14:00 +21°C° 0 mm 2 mps 745 mmHg 46%
    15:00 +21°C° 0 mm 2 mps 745 mmHg 46%
    16:00 +21°C° 0.2 mm 2 mps 744 mmHg 48%
    17:00 +20°C° 0.2 mm 2 mps 744 mmHg 49%
    18:00 +20°C° 0.2 mm 2 mps 744 mmHg 51%
    19:00 +18°C° 0.2 mm 2 mps 744 mmHg 57%
    20:00 +18°C° 0.2 mm 1 mps 743 mmHg 63%
    21:00 +15°C° 0.2 mm 1 mps 743 mmHg 69%
    22:00 +15°C° 0 mm 1 mps 743 mmHg 70%
    23:00 +14°C° 0 mm 1 mps 743 mmHg 71%

    27 April, Saturday

    Time Temperature Precipitation Wind Pressure Humidity
    00:00 +14°C° 0 mm 1 mps 743 mmHg 71%
    01:00 +14°C° 0 mm 1 mps 742 mmHg 72%
    02:00 +13°C° 0 mm 1 mps 742 mmHg 72%
    03:00 +13°C° 0 mm 1 mps 742 mmHg 72%
    04:00 +13°C° 0 mm 2 mps 742 mmHg 72%
    05:00 +13°C° 0 mm 2 mps 742 mmHg 73%
    06:00 +13°C° 0 mm 2 mps 741 mmHg 73%
    07:00 +15°C° 0 mm 2 mps 741 mmHg 68%
    08:00 +16°C° 0 mm 3 mps 741 mmHg 63%
    09:00 +18°C° 0 mm 3 mps 741 mmHg 57%
    10:00 +19°C° 0 mm 4 mps 740 mmHg 52%
    11:00 +20°C° 0 mm 4 mps 740 mmHg 46%
    12:00 +21°C° 0 mm 4 mps 740 mmHg 41%
    13:00 +21°C° 0 mm 4 mps 739 mmHg 43%
    14:00 +20°C° 0 mm 3 mps 739 mmHg 45%
    15:00 +20°C° 0 mm 3 mps 738 mmHg 47%
    16:00 +20°C° 0 mm 3 mps 738 mmHg 50%
    17:00 +19°C° 0 mm 3 mps 738 mmHg 52%
    18:00 +19°C° 0 mm 4 mps 737 mmHg 54%
    19:00 +17°C° 0 mm 3 mps 737 mmHg 59%
    20:00 +16°C° 0 mm 3 mps 737 mmHg 64%
    21:00 +15°C° 0 mm 2 mps 737 mmHg 69%
    22:00 +14°C° 0.1 mm 2 mps 737 mmHg 72%
    23:00 +14°C° 0.1 mm 1 mps 737 mmHg 74%

    28 April, Sunday

    Time Temperature Precipitation Wind Pressure Humidity
    00:00 +14°C° 0.1 mm 1 mps 737 mmHg 76%
    01:00 +13°C° 0.2 mm 1 mps 737 mmHg 78%
    02:00 +13°C° 0.2 mm 1 mps 736 mmHg 80%
    03:00 +13°C° 0.2 mm 1 mps 736 mmHg 81%
    04:00 +13°C° 0 mm 1 mps 736 mmHg 83%
    05:00 +12°C° 0 mm 1 mps 736 mmHg 85%
    06:00 +12°C° 0 mm 1 mps 736 mmHg 87%
    07:00 +13°C° 0 mm 2 mps 736 mmHg 86%
    08:00 +12°C° 0 mm 3 mps 737 mmHg 85%
    09:00 +12°C° 0 mm 5 mps 737 mmHg 84%
    10:00 +13°C° 0 mm 5 mps 737 mmHg 77%
    11:00 +14°C° 0 mm 6 mps 738 mmHg 71%
    12:00 +14°C° 0 mm 6 mps 738 mmHg 64%
    13:00 +14°C° 0 mm 6 mps 739 mmHg 60%
    14:00 +14°C° 0 mm 7 mps 739 mmHg 56%
    15:00 +15°C° 0 mm 7 mps 739 mmHg 51%
    16:00 +14°C° 0 mm 6 mps 740 mmHg 49%
    17:00 +13°C° 0 mm 6 mps 740 mmHg 47%
    18:00 +11°C° 0 mm 6 mps 740 mmHg 45%
    19:00 +10°C° 0 mm 6 mps 741 mmHg 47%
    20:00 +8°C° 0 mm 5 mps 741 mmHg 49%
    21:00 +7°C° 0 mm 5 mps 742 mmHg 51%
    22:00 +6°C° 0 mm 4 mps 742 mmHg 54%
    23:00 +6°C° 0 mm 4 mps 743 mmHg 56%

    29 April, Monday

    Time Temperature Precipitation Wind Pressure Humidity
    00:00 +5°C° 0 mm 4 mps 743 mmHg 58%
    01:00 +4°C° 0 mm 4 mps 744 mmHg 58%
    02:00 +4°C° 0 mm 4 mps 744 mmHg 59%
    03:00 +3°C° 0 mm 4 mps 744 mmHg 60%
    04:00 +3°C° 0 mm 4 mps 744 mmHg 61%
    05:00 +2°C° 0 mm 3 mps 745 mmHg 63%
    06:00 +2°C° 0 mm 3 mps 745 mmHg 65%
    07:00 +3°C° 0 mm 4 mps 745 mmHg 59%
    08:00 +5°C° 0 mm 4 mps 745 mmHg 53%
    09:00 +6°C° 0 mm 4 mps 746 mmHg 47%
    10:00 +7°C° 0 mm 4 mps 746 mmHg 44%
    11:00 +8°C° 0 mm 4 mps 746 mmHg 40%
    12:00 +10°C° 0 mm 4 mps 746 mmHg 37%
    13:00 +10°C° 0 mm 4 mps 745 mmHg 36%
    14:00 +10°C° 0 mm 3 mps 745 mmHg 35%
    15:00 +11°C° 0 mm 3 mps 745 mmHg 33%
    16:00 +11°C° 0 mm 3 mps 745 mmHg 34%
    17:00 +10°C° 0 mm 3 mps 744 mmHg 35%
    18:00 +10°C° 0 mm 3 mps 744 mmHg 36%
    19:00 +9°C° 0 mm 2 mps 744 mmHg 38%
    20:00 +9°C° 0 mm 2 mps 744 mmHg 41%
    21:00 +8°C° 0 mm 2 mps 745 mmHg 43%
    22:00 +8°C° 0 mm 2 mps 745 mmHg 44%
    23:00 +8°C° 0 mm 1 mps 745 mmHg 46%
    Show more